EW1998 Weather Reports


time (UTC)temp
C
wind
direction
speed
KPH
gust
KPH
rain 1hr
cm
rain 24hr
cm
rain mn
cm
humidity
%
barometer
mb
20260507090153 11 323 3.2 14.5 0.00 0.00 0.00 38 1017.0
20260507084431 11 214 3.2 11.3 0.00 0.00 0.00 36 1017.1
20260507082930 10 206 4.8 12.9 0.00 0.00 0.00 36 1017.1
20260507082127 10 292 3.2 17.7 0.00 0.00 0.00 41 1017.0
20260507081429 10 292 3.2 17.7 0.00 0.00 0.00 41 1017.0
20260507081328 9 285 8.0 16.1 0.00 0.00 0.00 41 1017.0
20260507075928 9 285 8.0 16.1 0.00 0.00 0.00 41 1017.0
20260507074402 9 318 3.2 17.7 0.00 0.00 0.00 44 1016.9
20260507073600 8 269 8.0 14.5 0.00 0.00 0.00 44 1016.8
20260507073115 8 269 8.0 14.5 0.00 0.00 0.00 44 1016.8
20260507071354 8 226 3.2 16.1 0.00 0.00 0.00 45 1016.9
20260507065830 8 274 3.2 19.3 0.00 0.00 0.00 45 1016.9
20260507064330 7 231 8.0 12.9 0.00 0.00 0.00 47 1016.9
20260507063522 6 178 3.2 9.7 0.00 0.00 0.00 54 1017.0
20260507062826 6 178 3.2 9.7 0.00 0.00 0.00 54 1017.0
20260507062715 5 182 1.6 8.0 0.00 0.00 0.00 57 1016.9
20260507061519 5 182 1.6 8.0 0.00 0.00 0.00 57 1016.9
20260507061143 4 315 0.0 4.8 0.00 0.00 0.00 61 1016.9
20260507055801 4 315 0.0 4.8 0.00 0.00 0.00 61 1016.9
20260507054303 3 10 1.6 6.4 0.00 0.00 0.00 65 1016.9
20260507052751 3 273 1.6 6.4 0.00 0.00 0.00 63 1016.9
20260507051923 2 321 0.0 8.0 0.00 0.00 0.00 67 1016.8
20260507051229 2 321 0.0 8.0 0.00 0.00 0.00 67 1016.8
20260507045729 1 297 6.4 9.7 0.00 0.00 0.00 71 1016.6
20260507044202 0 238 4.8 9.7 0.00 0.00 0.00 69 1016.4
20260507043423 0 74 0.0 3.2 0.00 0.00 0.00 79 1016.4
20260507042701 0 74 0.0 3.2 0.00 0.00 0.00 79 1016.4
20260507041202 -1 37 0.0 3.2 0.00 0.00 0.00 79 1016.4
20260507035701 -1 212 0.0 3.2 0.00 0.00 0.00 79 1016.2
20260507034858 -1 34 0.0 3.2 0.00 0.00 0.00 78 1016.1
20260507034203 -1 34 0.0 3.2 0.00 0.00 0.00 78 1016.1
20260507032702 -1 236 1.6 3.2 0.00 0.00 0.00 80 1016.0
20260507031903 -1 202 0.0 1.6 0.00 0.00 0.00 79 1015.9
20260507031412 -1 202 0.0 1.6 0.00 0.00 0.00 79 1015.9
20260507030413 -1 340 0.0 3.2 0.00 0.00 0.00 77 1015.9
20260507025913 -1 340 0.0 3.2 0.00 0.00 0.00 77 1015.9
20260507024855 -1 310 0.0 3.2 0.00 0.00 0.00 78 1015.7
20260507024146 -1 310 0.0 3.2 0.00 0.00 0.00 78 1015.7
20260507022630 0 44 0.0 3.2 0.00 0.00 0.00 78 1015.6
20260507021101 0 117 1.6 3.2 0.00 0.00 0.00 75 1015.4
20260507015602 0 222 0.0 4.8 0.00 0.00 0.00 76 1015.3
20260507014059 0 300 0.0 1.6 0.00 0.00 0.00 76 1015.3
20260507013237 0 152 0.0 3.2 0.00 0.00 0.00 73 1015.3
20260507012529 0 152 0.0 3.2 0.00 0.00 0.00 73 1015.3
20260507011725 0 358 3.2 3.2 0.00 0.00 0.00 74 1015.1
20260507005529 0 180 0.0 3.2 0.00 0.00 0.00 71 1014.9
20260507004031 1 240 0.0 3.2 0.00 0.00 0.00 70 1014.9
20260507002531 1 193 0.0 4.8 0.00 0.00 0.00 72 1014.7
20260507001030 2 224 0.0 4.8 0.00 0.00 0.00 62 1014.6
20260506235529 2 328 0.0 6.4 0.00 0.00 0.00 62 1014.6
20260506235439 3 325 3.2 8.0 0.00 0.00 0.00 61 1014.4
20260506234241 3 325 3.2 8.0 0.00 0.00 0.00 61 1014.4
20260506232502 3 254 6.4 6.4 0.00 0.00 0.00 57 1014.4
20260506231002 3 26 3.2 4.8 0.00 0.00 0.00 58 1014.3
20260506230847 2 202 0.0 3.2 0.00 0.00 0.00 63 1014.2
20260506225458 2 202 0.0 3.2 0.00 0.00 0.00 63 1014.2
20260506223947 3 99 0.0 6.4 0.00 0.00 0.00 59 1014.1
20260506223135 3 327 3.2 4.8 0.00 0.00 0.00 58 1014.0
20260506222430 3 327 3.2 4.8 0.00 0.00 0.00 58 1014.0
20260506221629 3 301 1.6 3.2 0.00 0.00 0.00 57 1013.8
20260506220928 3 301 1.6 3.2 0.00 0.00 0.00 57 1013.8
20260506220109 3 146 0.0 3.2 0.00 0.00 0.00 57 1013.6
20260506215402 3 146 0.0 3.2 0.00 0.00 0.00 57 1013.6
20260506214624 3 44 0.0 6.4 0.00 0.00 0.00 57 1013.5
20260506213901 3 44 0.0 6.4 0.00 0.00 0.00 57 1013.5
20260506212353 4 119 3.2 4.8 0.00 0.00 0.00 55 1013.4
20260506211552 5 230 0.0 4.8 0.00 0.00 0.00 50 1013.3
20260506210844 5 230 0.0 4.8 0.00 0.00 0.00 50 1013.3
20260506205333 5 296 0.0 4.8 0.00 0.00 0.00 49 1013.1
20260506203830 5 224 0.0 3.2 0.00 0.00 0.00 51 1013.0
20260506203242 5 55 0.0 1.6 0.00 0.00 0.00 52 1012.9
20260506203041 5 55 0.0 1.6 0.00 0.00 0.00 52 1012.9
20260506200831 6 50 0.0 4.8 0.00 0.00 0.00 47 1012.9
20260506200244 7 212 4.8 6.4 0.00 0.00 0.00 40 1012.7
20260506200033 7 212 4.8 6.4 0.00 0.00 0.00 40 1012.7
20260506193829 7 252 3.2 8.0 0.00 0.00 0.00 39 1012.4
20260506193717 8 243 3.2 12.9 0.00 0.00 0.00 37 1012.3
20260506192305 8 243 3.2 12.9 0.00 0.00 0.00 37 1012.3
20260506190801 8 278 4.8 12.9 0.00 0.00 0.00 35 1012.2
20260506190007 9 322 3.2 14.5 0.00 0.00 0.00 35 1011.9
20260506185306 9 322 3.2 14.5 0.00 0.00 0.00 35 1011.9
20260506183801 10 261 3.2 20.9 0.00 0.00 0.00 35 1011.8
20260506182957 10 337 16.1 17.7 0.00 0.00 0.00 33 1011.5
20260506182301 10 337 16.1 17.7 0.00 0.00 0.00 33 1011.5
20260506181513 11 354 6.4 12.9 0.00 0.00 0.00 30 1011.3
20260506180751 11 354 6.4 12.9 0.00 0.00 0.00 30 1011.3
20260506175229 12 347 4.8 11.3 0.00 0.00 0.00 29 1011.2
20260506173729 12 260 3.2 14.5 0.00 0.00 0.00 29 1011.0
20260506172231 12 322 3.2 12.9 0.00 0.00 0.00 30 1010.8
20260506172119 13 258 3.2 16.1 0.00 0.00 0.00 28 1010.8
20260506170728 13 258 3.2 16.1 0.00 0.00 0.00 28 1010.8
20260506165925 13 79 3.2 17.7 0.00 0.00 0.00 28 1010.8
20260506165441 13 79 3.2 17.7 0.00 0.00 0.00 28 1010.8
20260506164431 13 245 16.1 17.7 0.00 0.00 0.00 27 1010.7
20260506163729 13 245 16.1 17.7 0.00 0.00 0.00 27 1010.7
20260506162933 14 318 6.4 19.3 0.00 0.00 0.00 28 1010.8
20260506162441 14 318 6.4 19.3 0.00 0.00 0.00 28 1010.8
20260506160724 13 250 8.0 14.5 0.00 0.00 0.00 28 1010.8
20260506155202 14 296 6.4 14.5 0.00 0.00 0.00 28 1010.6
20260506153653 14 275 3.2 12.9 0.00 0.00 0.00 28 1010.5
20260506152717 15 34 0.0 9.7 0.00 0.00 0.00 28 1010.7
20260506152243 13 291 6.4 22.5 0.00 0.00 0.00 28 1010.6
20260506150631 15 34 0.0 9.7 0.00 0.00 0.00 28 1010.7
20260506145122 14 102 3.2 11.3 0.00 0.00 0.00 32 1010.7
20260506144259 13 3 3.2 11.3 0.00 0.00 0.00 28 1010.7
20260506143602 13 3 3.2 11.3 0.00 0.00 0.00 28 1010.7
20260506142102 14 354 8.0 9.7 0.00 0.00 0.00 30 1010.9
20260506140555 13 165 6.4 8.0 0.00 0.00 0.00 28 1011.1
20260506135742 13 171 6.4 8.0 0.00 0.00 0.00 30 1011.2
20260506135050 13 171 6.4 8.0 0.00 0.00 0.00 30 1011.2
20260506133531 13 325 0.0 11.3 0.00 0.00 0.00 32 1011.3
20260506132032 13 253 4.8 9.7 0.00 0.00 0.00 30 1011.3
20260506131201 13 297 0.0 9.7 0.00 0.00 0.00 29 1011.4
20260506130713 13 297 0.0 9.7 0.00 0.00 0.00 29 1011.4
20260506125010 13 139 1.6 12.9 0.00 0.00 0.00 33 1011.5
20260506124213 12 22 6.4 11.3 0.00 0.00 0.00 35 1011.5
20260506123707 12 22 6.4 11.3 0.00 0.00 0.00 35 1011.5
20260506122638 12 20 6.4 9.7 0.00 0.00 0.00 33 1011.7
20260506121938 12 20 6.4 9.7 0.00 0.00 0.00 33 1011.7
20260506121139 12 92 4.8 9.7 0.00 0.00 0.00 35 1011.7
20260506120430 12 92 4.8 9.7 0.00 0.00 0.00 35 1011.7
20260506114930 12 6 3.2 14.5 0.00 0.00 0.00 33 1011.9
20260506113429 12 4 3.2 8.0 0.00 0.00 0.00 32 1012.0
20260506112636 12 125 1.6 11.3 0.00 0.00 0.00 35 1012.2
20260506111930 12 125 1.6 11.3 0.00 0.00 0.00 35 1012.2
20260506110430 11 82 4.8 12.9 0.00 0.00 0.00 38 1012.3
20260506105646 11 12 3.2 11.3 0.00 0.00 0.00 35 1012.4
20260506105140 11 12 3.2 11.3 0.00 0.00 0.00 35 1012.4
20260506103431 11 184 4.8 9.7 0.00 0.00 0.00 36 1012.5
20260506101932 11 151 1.6 11.3 0.00 0.00 0.00 39 1012.6
20260506101115 10 173 6.4 12.9 0.00 0.00 0.00 38 1012.8
20260506100403 10 173 6.4 12.9 0.00 0.00 0.00 38 1012.8
20260506094904 10 184 3.2 12.9 0.00 0.00 0.00 40 1012.8
20260506094053 10 99 6.4 11.3 0.00 0.00 0.00 40 1012.8
20260506093612 10 99 6.4 11.3 0.00 0.00 0.00 40 1012.8
20260506091831 10 264 4.8 12.9 0.00 0.00 0.00 40 1013.0
20260506090332 9 210 8.0 12.9 0.00 0.00 0.00 40 1013.0